User: anonymous   Login
Location: Bothwell
(42.3833°S, 147.0000°E)
Time: 01:27:40
(UTC+10:00)
Language:

LilacSat-2 - Orbit

View from above orbital plane
View from above orbital plane
View from above satellite
View from above satellite

Ground track
Ground track

The orbit data is extracted from the following two-line orbital elements,

1 40908U 15049K   22274.02681659  .00003480  00000-0  18253-3 0  9991
2 40908  97.5211 273.6256 0015426  17.7388  57.7725 15.16329612388481
Epoch (UTC): 01 October 2022 00:38:36
Eccentricity: 0.0015426
inclination: 97.5211°
perigee height: 506 km
apogee height: 527 km
right ascension of ascending node: 273.6256°
argument of perigee: 17.7388°
revolutions per day: 15.16329612
mean anomaly at epoch: 57.7725°
orbit number at epoch: 38848

The dashed part of the orbit path shows where the satellite is in the earth's shadow,  

DLR